Location: Asbacherhof
(48.8543°N, 10.7903°E)
Time: 23:59:57
(UTC+00:00)

Cosmos 1610 Rocket - Pass Details

Date: 26 May 2022
Orbit: 952 x 1003 km, 82.9° (Epoch: 26 June)

Event Time Altitude Azimuth Distance (km) Brightness Sun altitude
Rises 01:38:22 0° 349° (N) 3,660 8.2 -13.0°
Reaches altitude 10° 01:40:53 10° 349° (N) 2,704 7.5 -12.8°
Maximum altitude 01:47:04 80° 264° (W) 975 4.4 -12.2°
Drops below altitude 10° 01:53:10 10° 178° (S) 2,671 6.3 -11.6°
Enters shadow 01:54:08 - 178° (S) 3,042 6.6 -11.5°
